QPF
0.00 0.00 0.00 0.00 0.00 0.00 0.00 0.00 0.00 0.00 0.00 0.00 0.00 0.00 0.00 0.00 0.00 0.00 0.00 0.00 0.00 0.00 0.00 0.00 0.00 0.00 0.00 0.00 0.00 0.00 0.00 0.00 0.00 0.00 0.00 0.00 0.00 0.00 0.00 0.00 0.00 0.00 0.00 0.00
0.00 0.00 0.00 0.00 0.00 0.00 0.00 0.00 0.00 0.00 0.00 0.00 0.00 0.00 0.00 0.00 0.00 0.00 0.00 0.00 0.00 0.00 0.00 0.00 0.00 0.00 0.00 0.00 0.00 0.00 0.00 0.00 0.00 0.00 0.00 0.00 0.00 0.00 0.00 0.00 0.00 0.00 0.00 0.00
0.00 0.00 0.00 0.00 0.00 0.00 0.00 0.00 0.00 0.00 0.00 0.00 0.00 0.00 0.00 0.00 0.00 0.00 0.00 0.00 0.00 0.00 0.00 0.00 0.00 0.00 0.00 0.00 0.00 0.00 0.00 0.00 0.00 0.00 0.00 0.00 0.00 0.00 0.00 0.00 0.00 0.00 0.00 0.00
0.00 0.00 0.00 0.00 0.00 0.00 0.00 0.00 0.00 0.00 0.00 0.00 0.00 0.00 0.00 0.00 0.00 0.00 0.00 0.00 0.00 0.00 0.00 0.00 0.00 0.00 0.00 0.00 0.00 0.00 0.00 0.00 0.00 0.00 0.00 0.00 0.00 0.00 0.00 0.00 0.00 0.00 0.00 0.00
0.01 0.01 0.00 0.00 0.00 0.00 0.01 0.00 0.00 0.00 0.00 0.01 0.01 0.03 0.00 0.00 0.00 0.00 0.00 0.00 0.00 0.00 0.00 0.00 0.00 0.00 0.00 0.00 0.00 0.00 0.00 0.00 0.00 0.00 0.00 0.00 0.00 0.00 0.00 0.00 0.00 0.00 0.00 0.00
0.02 0.02 0.00 0.00 0.00 0.00 0.01 0.01 0.00 0.00 0.01 0.04 0.03 0.02 0.00 0.00 0.00 0.00 0.00 0.00 0.00 0.00 0.00 0.00 0.00 0.00 0.00 0.00 0.00 0.00 0.00 0.00 0.00 0.00 0.00 0.00 0.00 0.00 0.00 0.00 0.00 0.00 0.00 0.00
0.03 0.02 0.02 0.00 0.00 0.00 0.02 0.01 0.00 0.01 0.01 0.03 0.02 0.01 0.00 0.00 0.00 0.00 0.00 0.00 0.00 0.00 0.00 0.00 0.00 0.00 0.00 0.00 0.00 0.00 0.00 0.00 0.00 0.00 0.00 0.00 0.00 0.00 0.00 0.00 0.00 0.00 0.00 0.00
0.01 0.03 0.01 0.00 0.00 0.00 0.01 0.00 0.00 0.00 0.02 0.04 0.04 0.04 0.02 0.01 0.00 0.00 0.00 0.00 0.00 0.00 0.00 0.00 0.00 0.00 0.00 0.00 0.00 0.00 0.00 0.00 0.00 0.00 0.00 0.00 0.00 0.00 0.00 0.00 0.00 0.00 0.00 0.00
0.00 0.01 0.00 0.00 0.00 0.00 0.00 0.00 0.00 0.00 0.01 0.02 0.03 0.02 0.01 0.01 0.00 0.00 0.00 0.00 0.00 0.00 0.00 0.00 0.00 0.00 0.00 0.00 0.00 0.00 0.00 0.00 0.00 0.00 0.00 0.00 0.00 0.00 0.00 0.00 0.00 0.00 0.00 0.00
0.00 0.00 0.00 0.00 0.00 0.00 0.00 0.00 0.00 0.00 0.00 0.01 0.01 0.01 0.00 0.00 0.00 0.00 0.00 0.00 0.00 0.00 0.00 0.00 0.00 0.00 0.00 0.00 0.00 0.00 0.00 0.00 0.00 0.00 0.00 0.00 0.00 0.00 0.00 0.00 0.00 0.00 0.00 0.00
0.00 0.00 0.00 0.00 0.00 0.00 0.00 0.00 0.00 0.00 0.00 0.00 0.00 0.00 0.00 0.00 0.00 0.00 0.00 0.00 0.00 0.00 0.00 0.00 0.00 0.00 0.00 0.00 0.00 0.00 0.00 0.00 0.00 0.00 0.00 0.00 0.00 0.00 0.00 0.00 0.00 0.00 0.00 0.00
0.00 0.00 0.00 0.00 0.00 0.00 0.00 0.00 0.00 0.00 0.00 0.00 0.00 0.00 0.01 0.01 0.01 0.00 0.00 0.00 0.00 0.00 0.00 0.00 0.00 0.00 0.00 0.00 0.00 0.00 0.00 0.00 0.00 0.00 0.00 0.00 0.00 0.00 0.00 0.00 0.00 0.00 0.00 0.00
0.00 0.00 0.00 0.00 0.00 0.00 0.00 0.00 0.00 0.00 0.00 0.00 0.00 0.01 0.01 0.03 0.01 0.00 0.01 0.00 0.00 0.00 0.00 0.00 0.00 0.00 0.00 0.00 0.00 0.00 0.00 0.00 0.00 0.00 0.00 0.00 0.00 0.00 0.00 0.00 0.00 0.00 0.00 0.00
0.00 0.00 0.00 0.00 0.00 0.00 0.00 0.00 0.00 0.00 0.00 0.00 0.00 0.00 0.00 0.00 0.00 0.00 0.00 0.00 0.00 0.00 0.00 0.00 0.00 0.00 0.00 0.00 0.00 0.00 0.00 0.00 0.00 0.00 0.00 0.00 0.00 0.00 0.00 0.00 0.00 0.00 0.00 0.00
0.00 0.00 0.00 0.00 0.00 0.00 0.00 0.00 0.00 0.00 0.00 0.00 0.00 0.00 0.00 0.01 0.00 0.00 0.00 0.00 0.00 0.00 0.00 0.00 0.00 0.00 0.00 0.00 0.00 0.00 0.00 0.00 0.00 0.00 0.00 0.00 0.00 0.00 0.00 0.00 0.00 0.00 0.00 0.00
0.01 0.00 0.00 0.00 0.00 0.00 0.00 0.00 0.00 0.00 0.00 0.00 0.00 0.03 0.06 0.04 0.00 0.00 0.00 0.00 0.00 0.00 0.00 0.00 0.00 0.00 0.00 0.00 0.00 0.00 0.00 0.00 0.00 0.00 0.00 0.00 0.00 0.00 0.00 0.00 0.00 0.00 0.00 0.00
0.02 0.01 0.01 0.01 0.01 0.00 0.00 0.00 0.00 0.00 0.00 0.00 0.00 0.01 0.02 0.00 0.00 0.00 0.00 0.00 0.00 0.00 0.00 0.00 0.00 0.00 0.00 0.00 0.00 0.00 0.00 0.00 0.00 0.00 0.00 0.00 0.00 0.00 0.00 0.00 0.00 0.00 0.00 0.00
0.02 0.01 0.02 0.02 0.04 0.01 0.00 0.00 0.00 0.00 0.02 0.01 0.00 0.00 0.00 0.00 0.00 0.00 0.00 0.00 0.00 0.00 0.00 0.00 0.00 0.00 0.00 0.00 0.00 0.00 0.00 0.00 0.00 0.00 0.00 0.00 0.00 0.00 0.00 0.00 0.00 0.00 0.00 0.00
0.03 0.04 0.04 0.04 0.03 0.03 0.04 0.04 0.03 0.02 0.01 0.01 0.00 0.00 0.00 0.00 0.00 0.00 0.00 0.00 0.00 0.00 0.00 0.00 0.00 0.00 0.00 0.00 0.00 0.00 0.00 0.00 0.00 0.00 0.00 0.00 0.00 0.00 0.00 0.00 0.00 0.00 0.00 0.00
0.00 0.00 0.01 0.00 0.00 0.00 0.00 0.00 0.01 0.02 0.01 0.00 0.00 0.00 0.00 0.00 0.00 0.00 0.00 0.00 0.00 0.00 0.00 0.00 0.00 0.00 0.00 0.00 0.00 0.00 0.00 0.00 0.00 0.00 0.00 0.00 0.00 0.00 0.00 0.00 0.00 0.00 0.00 0.00
0.00 0.00 0.00 0.00 0.00 0.00 0.00 0.00 0.00 0.00 0.00 0.00 0.00 0.00 0.00 0.00 0.00 0.00 0.00 0.00 0.00 0.00 0.00 0.00 0.00 0.00 0.00 0.00 0.00 0.00 0.00 0.00 0.00 0.00 0.00 0.00 0.00 0.00 0.00 0.00 0.00 0.00 0.00 0.00
0.00 0.00 0.00 0.00 0.00 0.00 0.00 0.00 0.00 0.00 0.00 0.00 0.00 0.00 0.00 0.00 0.00 0.00 0.00 0.00 0.00 0.00 0.00 0.00 0.00 0.00 0.00 0.00 0.00 0.00 0.00 0.00 0.00 0.00 0.00 0.00 0.00 0.00 0.00 0.00 0.00 0.00 0.00 0.00
0.00 0.00 0.00 0.00 0.00 0.00 0.00 0.00 0.00 0.00 0.00 0.00 0.00 0.00 0.00 0.00 0.00 0.00 0.00 0.00 0.00 0.00 0.00 0.00 0.00 0.00 0.00 0.00 0.00 0.00 0.00 0.00 0.00 0.00 0.00 0.00 0.00 0.00 0.00 0.00 0.00 0.00 0.00 0.00
0.00 0.00 0.00 0.00 0.00 0.00 0.00 0.00 0.00 0.00 0.00 0.00 0.00 0.00 0.00 0.00 0.00 0.00 0.00 0.00 0.00 0.00 0.00 0.00 0.00 0.00 0.00 0.00 0.00 0.00 0.00 0.00 0.00 0.00 0.00 0.00 0.00 0.00 0.00 0.00 0.00 0.00 0.00 0.00
0.00 0.00 0.00 0.00 0.00 0.00 0.00 0.00 0.00 0.00 0.00 0.00 0.00 0.00 0.00 0.00 0.00 0.00 0.00 0.00 0.00 0.00 0.00 0.00 0.00 0.00 0.00 0.00 0.00 0.00 0.00 0.00 0.00 0.00 0.00 0.00 0.00 0.00 0.00 0.00 0.00 0.00 0.00 0.00
0.00 0.00 0.00 0.00 0.01 0.00 0.00 0.00 0.00 0.00 0.00 0.00 0.00 0.00 0.00 0.00 0.00 0.00 0.00 0.00 0.00 0.00 0.00 0.00 0.00 0.00 0.00 0.00 0.00 0.00 0.00 0.00 0.00 0.00 0.00 0.00 0.00 0.00 0.00 0.00 0.00 0.00 0.00 0.00
0.00 0.00 0.00 0.00 0.00 0.00 0.00 0.00 0.00 0.00 0.00 0.00 0.00 0.00 0.00 0.00 0.00 0.00 0.00 0.00 0.00 0.00 0.00 0.00 0.00 0.00 0.00 0.00 0.00 0.00 0.00 0.00 0.00 0.00 0.00 0.00 0.00 0.00 0.00 0.00 0.00 0.00 0.00 0.00
MSLP
1000.21 1000.00 1000.02 999.51 998.43 997.54 997.30 998.26 998.03 996.43 997.06 994.96 995.90 995.58 995.29 995.45 995.00 996.42 996.89 996.23 993.78 992.73 992.94 993.37 993.92 994.78 995.76 996.38 997.10 998.19 999.42 1000.60 1001.76 1002.59 1003.54 1004.38 1005.42 1006.28 1006.71 1007.18 1008.00 1009.09 1010.19 1011.08
1000.22 999.80 998.84 998.11 997.57 997.42 997.17 996.59 996.32 995.77 994.32 993.54 992.92 993.16 993.77 995.14 995.21 995.21 996.23 996.26 996.11 995.21 993.97 993.99 994.64 994.89 995.81 996.31 997.17 997.80 999.05 1000.45 1001.47 1002.54 1003.77 1004.86 1005.60 1006.18 1007.15 1007.98 1008.78 1009.88 1010.63 1010.83
999.64 999.35 998.41 997.19 996.68 996.48 995.83 995.78 995.82 994.92 993.52 992.94 991.70 991.94 993.16 994.34 993.79 995.08 995.33 995.51 995.87 995.60 995.69 995.27 995.66 995.80 996.43 995.87 997.65 997.99 999.09 1000.28 1001.51 1002.80 1003.91 1005.10 1006.19 1006.83 1006.84 1007.44 1008.15 1008.76 1009.72 1010.83
999.97 999.64 998.48 996.44 996.26 995.50 994.95 994.52 994.58 993.99 993.18 992.72 991.23 991.13 992.23 991.68 992.63 994.34 994.68 994.83 995.37 995.32 995.41 995.09 995.95 996.51 996.11 996.64 997.59 997.72 998.71 999.85 1001.08 1002.81 1003.67 1004.94 1006.04 1006.82 1007.55 1007.97 1008.42 1009.17 1009.66 1009.94
999.96 998.89 997.67 997.06 996.88 997.22 996.66 994.87 995.40 995.76 994.88 993.55 991.72 991.10 990.82 991.63 992.70 993.25 993.67 994.00 994.42 994.91 995.06 994.62 995.28 996.48 996.90 997.38 997.70 997.94 998.32 999.56 1001.03 1002.38 1003.61 1004.89 1005.88 1006.72 1007.12 1007.60 1008.08 1008.78 1009.77 1010.26
999.83 999.30 998.33 998.85 998.45 998.23 997.48 995.76 996.77 996.82 996.19 995.58 994.26 992.21 991.14 991.72 992.20 992.70 993.06 993.18 994.40 994.65 994.78 995.06 994.60 996.77 996.74 997.29 997.81 998.02 998.49 999.62 1000.75 1001.94 1003.16 1004.39 1005.55 1005.98 1006.40 1007.23 1008.02 1009.00 1009.45 1009.80
999.10 998.42 998.71 999.52 998.62 997.58 997.87 998.22 997.58 997.69 997.20 996.03 994.55 992.50 991.47 991.40 991.52 992.08 992.61 993.58 994.51 994.00 995.18 994.76 995.36 996.38 997.14 997.73 998.25 998.02 998.69 999.73 1000.56 1001.84 1003.08 1003.99 1004.87 1005.65 1006.18 1006.96 1007.65 1008.58 1009.40 1009.82
998.98 998.69 998.82 999.09 998.49 999.17 999.46 999.04 998.94 998.50 997.79 995.79 993.29 991.56 991.76 991.84 991.61 992.00 992.69 993.30 993.94 994.14 995.11 995.47 996.05 996.29 997.71 998.79 999.22 998.84 1000.01 1000.99 1001.84 1002.38 1002.94 1003.84 1004.83 1005.62 1006.12 1006.63 1007.38 1008.26 1009.40 1009.77
999.04 998.96 998.43 998.63 999.01 999.10 998.92 998.69 998.85 998.73 997.58 995.43 991.98 991.83 992.32 992.86 992.48 992.54 992.82 993.33 993.86 994.93 995.72 996.66 996.57 997.33 998.93 1000.16 1000.26 1000.02 1001.17 1002.54 1003.16 1003.51 1003.66 1004.07 1004.84 1005.65 1006.39 1006.82 1007.13 1007.71 1008.71 1009.35
998.09 997.92 997.66 998.00 998.42 997.99 998.07 997.86 998.33 998.50 997.96 995.94 994.56 993.04 992.59 993.00 992.71 992.83 992.83 993.47 994.33 995.56 996.86 997.85 998.28 999.28 999.96 1001.02 1001.28 1001.15 1002.45 1003.69 1004.15 1004.42 1004.75 1005.03 1005.11 1005.79 1006.37 1006.74 1006.88 1007.44 1008.21 1008.90
997.00 996.99 996.77 997.02 997.10 997.33 997.40 997.35 997.72 998.04 998.35 996.94 995.54 994.46 993.47 992.85 992.85 992.96 993.80 994.54 995.28 996.48 997.58 998.42 999.54 1000.36 1000.97 1001.44 1001.62 1001.66 1003.06 1003.81 1004.20 1004.75 1005.07 1005.00 1005.20 1006.15 1006.30 1006.56 1006.67 1007.05 1007.92 1008.72
997.00 996.51 996.27 996.40 996.53 996.75 996.65 996.87 997.34 997.73 997.88 997.34 996.38 994.92 993.97 993.72 993.45 993.76 994.72 995.59 996.19 996.94 997.94 998.61 999.57 1000.28 1001.20 1001.36 1001.80 1002.23 1002.57 1003.02 1003.90 1004.83 1005.56 1004.97 1005.68 1006.48 1006.85 1006.22 1007.04 1007.27 1007.95 1008.38
996.50 996.14 995.72 995.61 995.68 995.88 995.90 996.01 996.50 997.08 997.56 997.74 996.76 995.74 995.07 994.69 994.93 994.97 995.45 996.07 996.65 997.37 998.09 998.68 999.89 1000.97 1001.47 1001.58 1001.79 1001.86 1002.61 1003.58 1004.59 1005.26 1005.35 1005.74 1006.10 1006.53 1006.11 1006.30 1006.96 1007.46 1007.78 1008.01
996.92 996.44 995.61 995.12 994.84 995.02 995.32 995.49 995.92 996.30 996.92 997.44 997.22 995.69 995.24 995.76 995.96 996.24 996.66 996.86 997.17 998.02 999.02 999.82 1000.71 1001.52 1002.02 1002.14 1002.37 1002.67 1003.44 1003.87 1004.58 1005.26 1005.50 1005.82 1005.60 1005.80 1005.83 1006.44 1006.74 1007.08 1007.43 1007.67
997.52 997.24 996.41 995.64 995.08 994.71 994.94 995.25 995.41 995.85 996.29 996.36 996.52 996.47 996.26 995.81 996.68 997.42 998.02 998.46 998.80 999.32 1000.09 1000.74 1001.49 1002.01 1002.44 1002.62 1002.90 1003.22 1003.67 1004.06 1004.24 1004.78 1005.31 1005.25 1005.44 1005.63 1005.78 1006.11 1006.56 1006.98 1007.44 1007.74
997.87 997.12 996.36 995.87 995.32 994.94 994.72 994.86 995.08 995.45 995.41 996.16 996.55 996.60 996.45 996.90 997.82 998.60 999.24 999.74 999.89 1000.34 1001.14 1001.80 1002.17 1002.55 1002.52 1002.71 1003.02 1003.41 1003.38 1003.62 1004.24 1004.63 1004.74 1005.00 1005.32 1005.44 1005.84 1006.10 1006.43 1006.86 1007.28 1007.53
997.42 996.52 996.06 995.68 995.56 995.28 995.10 994.97 995.10 995.43 995.63 996.04 996.85 997.26 997.39 998.28 999.21 999.94 1000.38 1000.80 1001.09 1001.46 1001.82 1002.13 1002.51 1002.75 1002.81 1002.82 1002.98 1003.04 1003.28 1003.48 1003.71 1004.07 1004.34 1004.87 1005.12 1005.45 1005.75 1005.81 1006.25 1006.78 1007.14 1007.61
997.78 996.74 996.55 996.62 996.51 996.43 995.85 995.23 995.41 995.64 995.94 996.78 997.92 998.54 999.03 999.47 999.98 1000.65 1001.08 1001.44 1001.95 1001.95 1002.27 1002.53 1002.64 1002.74 1002.65 1002.62 1002.73 1002.98 1003.03 1003.25 1003.50 1003.77 1004.06 1004.47 1004.80 1005.29 1005.63 1005.65 1005.95 1006.48 1007.01 1007.49
998.74 998.17 997.65 997.71 997.72 997.51 997.36 997.19 997.32 997.26 997.49 998.28 998.95 999.59 1000.08 1000.44 1000.90 1001.46 1001.88 1002.00 1002.05 1002.30 1002.71 1002.68 1002.76 1002.72 1002.58 1002.52 1002.54 1002.65 1002.96 1003.20 1003.36 1003.53 1003.73 1004.07 1004.48 1004.86 1005.10 1005.28 1005.56 1005.91 1006.48 1007.06
999.84 999.36 999.05 998.95 998.96 998.95 998.76 998.54 998.66 998.98 999.10 999.48 1000.18 1000.52 1000.99 1001.41 1001.74 1001.92 1002.22 1002.10 1002.12 1002.40 1002.59 1002.83 1002.93 1002.65 1002.42 1002.31 1002.43 1002.61 1002.82 1003.04 1003.11 1003.26 1003.56 1003.80 1004.10 1004.40 1004.58 1004.74 1005.07 1005.38 1005.84 1006.42
1000.75 1000.40 1000.24 1000.09 1000.03 999.93 999.85 999.72 999.62 999.94 1000.09 1000.49 1000.98 1001.15 1001.46 1001.88 1002.13 1002.32 1002.43 1002.19 1002.60 1002.89 1002.99 1002.98 1002.83 1002.59 1002.67 1002.92 1002.69 1002.80 1002.92 1002.90 1002.88 1003.08 1003.26 1003.50 1003.65 1003.85 1004.05 1004.18 1004.46 1004.77 1005.14 1005.60
1001.33 1001.09 1000.93 1000.77 1000.66 1000.63 1000.58 1000.52 1000.48 1000.54 1000.68 1001.23 1001.51 1001.54 1001.79 1002.11 1002.27 1002.50 1002.63 1002.52 1002.88 1003.04 1003.22 1002.98 1002.76 1003.09 1003.42 1003.44 1003.08 1003.08 1003.05 1003.00 1002.91 1002.91 1002.90 1003.00 1003.20 1003.32 1003.46 1003.61 1003.77 1004.01 1004.30 1004.67
1001.57 1001.46 1001.28 1001.19 1001.14 1001.13 1001.14 1001.15 1001.10 1001.12 1001.30 1001.58 1001.80 1001.75 1001.63 1001.60 1001.98 1002.06 1002.44 1002.78 1002.88 1003.46 1003.32 1003.10 1003.24 1003.34 1003.32 1003.22 1003.08 1003.09 1003.00 1002.89 1002.82 1002.79 1002.68 1002.65 1002.71 1002.73 1002.79 1002.94 1003.16 1003.38 1003.60 1003.88
1001.58 1001.51 1001.44 1001.31 1001.18 1001.22 1001.24 1001.44 1001.47 1001.54 1001.68 1001.82 1001.91 1002.00 1002.08 1002.12 1002.36 1002.48 1002.75 1003.12 1003.38 1003.36 1003.15 1003.13 1003.18 1003.18 1003.15 1002.99 1002.94 1002.85 1002.71 1002.63 1002.54 1002.37 1002.31 1002.30 1002.26 1002.22 1002.31 1002.48 1002.67 1002.88 1003.04 1003.24
1001.62 1001.32 1001.35 1001.34 1001.12 1001.00 1000.92 1001.08 1001.27 1001.42 1001.49 1001.65 1001.83 1001.98 1002.17 1002.05 1002.24 1002.58 1002.84 1003.10 1003.23 1003.17 1003.13 1003.19 1003.21 1003.05 1002.94 1002.99 1002.94 1002.79 1002.72 1002.48 1002.25 1002.15 1002.08 1002.00 1001.94 1001.99 1002.14 1002.29 1002.45 1002.57 1002.64 1002.76
1001.96 1001.80 1001.62 1001.44 1001.27 1001.14 1001.02 1000.90 1000.92 1000.97 1001.15 1001.24 1001.28 1001.43 1001.88 1002.13 1002.41 1002.63 1002.94 1003.16 1003.13 1003.28 1003.28 1003.24 1003.17 1003.18 1003.04 1002.99 1003.13 1003.08 1002.81 1002.56 1002.40 1002.32 1002.15 1002.11 1002.15 1002.21 1002.30 1002.41 1002.54 1002.61 1002.68 1002.73
1002.30 1002.25 1001.99 1001.68 1001.59 1001.56 1001.31 1000.93 1000.76 1000.76 1000.80 1000.84 1001.17 1001.60 1001.98 1002.34 1002.63 1002.83 1003.14 1003.20 1003.14 1003.16 1003.38 1003.32 1003.26 1003.29 1003.24 1003.28 1003.42 1003.38 1003.18 1003.03 1002.94 1002.74 1002.64 1002.66 1002.71 1002.73 1002.72 1002.80 1002.90 1002.98 1003.06 1003.13
Thickness
5467 5482 5486 5494 5511 5514 5504 5509 5494 5527 5503 5552 5540 5548 5565 5555 5561 5544 5541 5536 5570 5586 5587 5588 5589 5585 5583 5581 5578 5574 5568 5560 5549 5542 5538 5534 5527 5522 5521 5519 5514 5507 5500 5495
5449 5473 5485 5483 5493 5499 5509 5510 5509 5517 5527 5552 5554 5559 5560 5548 5545 5544 5536 5540 5538 5545 5561 5567 5567 5570 5567 5564 5559 5561 5555 5544 5537 5530 5522 5514 5509 5508 5502 5497 5493 5487 5484 5482
5441 5470 5472 5456 5486 5493 5500 5506 5500 5498 5525 5541 5551 5552 5545 5535 5545 5538 5538 5540 5539 5543 5541 5548 5548 5549 5544 5555 5544 5546 5538 5532 5523 5514 5508 5500 5491 5489 5493 5491 5486 5480 5475 5469
5427 5442 5415 5485 5494 5495 5492 5503 5508 5512 5522 5528 5544 5547 5540 5545 5541 5532 5534 5536 5532 5534 5536 5543 5536 5529 5535 5534 5532 5537 5533 5526 5515 5500 5500 5492 5485 5481 5477 5476 5473 5467 5465 5465
5418 5439 5455 5467 5467 5446 5456 5490 5490 5461 5476 5492 5526 5532 5539 5536 5528 5527 5529 5529 5528 5525 5526 5536 5533 5524 5521 5520 5522 5520 5523 5517 5504 5495 5487 5479 5474 5469 5469 5468 5466 5460 5451 5450
5418 5414 5429 5414 5428 5430 5443 5465 5447 5448 5449 5452 5476 5493 5519 5516 5516 5517 5520 5525 5517 5516 5519 5520 5529 5510 5513 5513 5512 5510 5509 5508 5500 5492 5483 5473 5465 5463 5461 5455 5449 5442 5439 5438
5411 5417 5425 5406 5424 5436 5432 5438 5429 5432 5434 5438 5458 5494 5506 5507 5511 5509 5510 5506 5504 5512 5504 5512 5511 5504 5503 5505 5503 5505 5501 5498 5492 5481 5469 5461 5456 5451 5446 5440 5435 5428 5422 5419
5402 5409 5399 5403 5417 5400 5403 5409 5412 5418 5421 5437 5463 5497 5490 5497 5501 5501 5500 5496 5495 5500 5496 5497 5496 5495 5491 5486 5485 5486 5479 5474 5469 5465 5459 5450 5443 5436 5431 5427 5421 5413 5405 5401
5394 5392 5401 5400 5394 5399 5405 5410 5407 5409 5419 5443 5473 5488 5483 5476 5487 5485 5487 5486 5487 5485 5481 5476 5480 5479 5470 5465 5464 5463 5454 5445 5443 5441 5439 5436 5431 5423 5417 5411 5407 5403 5394 5389
5399 5406 5409 5402 5398 5410 5406 5415 5409 5410 5410 5438 5444 5462 5467 5466 5476 5477 5483 5479 5477 5471 5460 5452 5455 5454 5454 5450 5448 5444 5435 5428 5426 5423 5419 5416 5414 5409 5403 5399 5395 5390 5382 5375
5406 5411 5414 5410 5411 5409 5410 5411 5409 5409 5402 5422 5437 5443 5461 5472 5471 5473 5466 5461 5461 5455 5448 5445 5439 5438 5440 5438 5435 5432 5425 5421 5419 5413 5410 5407 5404 5398 5396 5391 5386 5380 5368 5358
5386 5404 5404 5405 5408 5406 5409 5410 5402 5400 5398 5408 5419 5441 5454 5457 5461 5460 5452 5449 5450 5448 5443 5442 5439 5436 5432 5432 5429 5424 5422 5421 5414 5405 5400 5400 5392 5386 5380 5380 5371 5365 5355 5347
5397 5402 5405 5404 5407 5408 5409 5413 5410 5401 5399 5398 5407 5426 5437 5443 5441 5442 5446 5445 5444 5443 5440 5441 5432 5424 5424 5424 5423 5424 5418 5409 5401 5393 5390 5384 5381 5377 5377 5370 5361 5353 5347 5342
5384 5387 5393 5401 5404 5408 5407 5411 5411 5408 5401 5401 5401 5424 5435 5430 5430 5431 5429 5433 5439 5435 5429 5427 5420 5413 5409 5410 5408 5405 5401 5395 5391 5385 5381 5378 5379 5374 5370 5362 5356 5348 5341 5336
5369 5368 5376 5385 5392 5400 5402 5403 5407 5408 5404 5404 5406 5413 5417 5428 5420 5414 5413 5415 5417 5417 5415 5412 5406 5402 5400 5399 5397 5396 5392 5389 5387 5382 5377 5375 5371 5367 5362 5356 5347 5339 5332 5327
5350 5357 5367 5373 5382 5389 5395 5399 5402 5406 5415 5404 5405 5410 5417 5412 5406 5403 5402 5399 5406 5404 5398 5390 5391 5390 5392 5393 5391 5388 5389 5386 5381 5377 5374 5370 5364 5360 5353 5347 5340 5332 5325 5321
5354 5357 5362 5369 5373 5379 5383 5391 5398 5402 5407 5408 5402 5401 5404 5394 5387 5382 5383 5382 5382 5383 5385 5384 5382 5381 5382 5384 5385 5385 5384 5381 5379 5375 5371 5363 5358 5352 5346 5342 5335 5327 5321 5315
5353 5361 5359 5356 5359 5362 5371 5385 5391 5397 5400 5394 5379 5377 5376 5378 5380 5374 5373 5372 5370 5373 5375 5373 5374 5374 5376 5380 5380 5378 5378 5375 5373 5369 5365 5358 5353 5346 5339 5336 5330 5323 5316 5311
5344 5346 5349 5345 5344 5347 5351 5354 5352 5360 5364 5363 5363 5363 5364 5365 5366 5363 5361 5362 5364 5367 5364 5366 5366 5368 5373 5373 5373 5374 5370 5368 5366 5363 5359 5354 5347 5341 5336 5331 5326 5322 5315 5308
5329 5330 5330 5327 5322 5320 5324 5330 5332 5335 5341 5348 5349 5351 5352 5351 5352 5353 5354 5361 5362 5360 5361 5358 5359 5363 5367 5365 5364 5365 5363 5361 5359 5355 5351 5347 5342 5337 5332 5326 5322 5319 5314 5307
5320 5318 5314 5313 5311 5311 5311 5315 5321 5325 5331 5336 5341 5345 5346 5345 5344 5345 5348 5357 5350 5347 5347 5348 5351 5354 5351 5350 5354 5353 5352 5352 5351 5348 5345 5341 5337 5332 5326 5323 5319 5315 5311 5307
5318 5316 5313 5312 5311 5311 5309 5310 5315 5322 5326 5328 5331 5336 5338 5338 5339 5337 5336 5343 5340 5337 5336 5341 5343 5338 5335 5335 5340 5340 5341 5342 5341 5339 5338 5336 5331 5327 5322 5319 5316 5312 5308 5304
5318 5316 5315 5314 5313 5312 5312 5313 5316 5320 5323 5324 5326 5330 5335 5338 5338 5340 5338 5333 5334 5324 5328 5331 5329 5326 5326 5328 5329 5330 5331 5332 5332 5330 5330 5329 5326 5322 5319 5316 5313 5309 5305 5300
5319 5316 5315 5315 5317 5315 5316 5314 5315 5316 5316 5318 5320 5323 5328 5329 5326 5327 5325 5322 5319 5320 5322 5322 5320 5319 5319 5320 5321 5322 5324 5325 5324 5325 5324 5322 5320 5317 5314 5312 5309 5305 5301 5294
5315 5318 5315 5313 5317 5318 5320 5319 5318 5316 5317 5319 5318 5317 5318 5321 5322 5319 5317 5315 5313 5313 5313 5309 5305 5304 5304 5306 5309 5311 5313 5316 5317 5317 5316 5315 5313 5311 5307 5305 5303 5301 5300 5296
5307 5308 5308 5309 5310 5311 5312 5316 5317 5318 5317 5317 5318 5317 5315 5314 5313 5312 5309 5306 5306 5303 5300 5295 5288 5281 5281 5285 5290 5296 5301 5304 5306 5306 5306 5305 5302 5300 5298 5297 5296 5295 5294 5293
5298 5297 5299 5302 5302 5298 5300 5308 5311 5311 5311 5312 5313 5308 5306 5303 5302 5300 5297 5297 5297 5295 5291 5286 5281 5276 5275 5275 5277 5282 5287 5290 5291 5292 5292 5290 5289 5288 5287 5286 5286 5285 5285 5285